Location: La Ro�
(47.8956°N, 1.1115°W)
Time: 17:01:10
(UTC+00:00)

Daily predictions for brighter satellites

Satellite Brightness Start Highest point End
(mag) Time Altitude Azimuth Time Altitude Azimuth Time Altitude Azimuth
ATLAS 2AS CENTAUR R/B 3.8 18:54:05 10° NW 19:01:13 37° NNE 19:07:51 10° E
Cosmos 1943 4.3 18:59:13 10° SSE 19:03:24 22° E 19:07:36 10° NE
S3M 4.4 18:57:13 10° SSW 19:03:35 75° W 19:10:02 10° N
STARLINK-1128 3.8 19:01:34 10° WNW 19:05:42 74° SSW 19:09:50 10° SE
STARLINK-1241 4.3 19:02:34 10° W 19:06:39 55° NNW 19:10:44 10° ENE
USA 234 4.3 19:03:19 10° ENE 19:08:07 21° SE 19:12:54 10° S
SJ-11-01 4.3 19:04:38 10° SSE 19:09:19 73° ENE 19:14:03 10° N
HJ-1C 3.5 19:06:47 10° SSE 19:10:08 84° WSW 19:13:31 10° NNW
STARLINK-1113 3.9 19:06:33 10° WNW 19:10:40 69° SSW 19:14:47 10° SE
CSL-04 Rocket 4.4 19:05:51 10° S 19:11:03 57° W 19:16:16 10° NNW
STARLINK-1239 4.3 19:07:34 10° W 19:11:38 53° NNW 19:15:43 10° ENE
SPOT 3 Rocket 4.4 19:08:40 10° SE 19:13:17 33° ENE 19:17:56 10° N
STARLINK-1119 3.9 19:11:32 10° WNW 19:15:38 64° SSW 19:19:44 10° SE
STARLINK-1240 4.4 19:12:34 10° W 19:16:37 51° NNW 19:20:41 10° ENE
Cosmos 1758 Rocket 4.4 19:13:34 10° N 19:17:27 31° ENE 19:21:18 10° SE
SeaSat 1 3.0 19:13:15 10° NNE 19:18:09 64° WNW 19:23:00 10° SW
SJ-6B 3.3 19:15:34 10° SE 19:19:28 44° ENE 19:23:25 10° N
STARLINK-1114 4.0 19:16:31 10° WNW 19:20:37 60° SSW 19:24:40 10° SE
STARLINK-1216 4.4 19:17:35 10° W 19:21:38 50° NNW 19:25:41 10° ENE
SL-14 R/B 4.1 19:18:50 10° NNW 19:22:49 56° W 19:26:44 10° S
SL-16 R/B 2.6 19:18:35 10° SW 19:24:13 69° WNW 19:29:54 10° NNE
STARLINK-1130 (DARKSAT) 4.1 19:21:29 10° WNW 19:25:34 55° SW 19:29:37 10° SE
STARLINK-1237 4.5 19:22:37 10° W 19:26:39 48° NNW 19:30:41 10° ENE
CZ-2C R/B 2.9 19:24:08 10° SSE 19:29:04 73° ENE 19:33:51 10° N
Cosmos 1758 3.3 19:25:53 10° S 19:29:58 85° E 19:34:05 10° N
MOS 1 4.3 19:24:32 10° SSE 19:30:09 76° ENE 19:35:50 10° NNW
STARLINK-1084 4.2 19:26:29 10° WNW 19:30:31 51° SW 19:34:30 10° SE
STARLINK-1233 4.4 19:28:24 10° WNW 19:31:15 31° N 19:34:07 10° ENE
STARLINK-1212 4.4 19:28:51 10° WNW 19:31:43 31° N 19:34:33 10° ENE
STARLINK-1105 4.4 19:29:18 10° WNW 19:32:10 31° N 19:35:02 10° ENE
STARLINK-1206 4.4 19:29:47 10° WNW 19:32:38 31° N 19:35:28 10° ENE
STARLINK-1247 4.4 19:30:15 10° WNW 19:33:05 31° N 19:35:55 10° ENE
STARLINK-1227 4.4 19:30:39 10° WNW 19:33:30 31° N 19:36:23 10° ENE
STARLINK-1218 4.4 19:31:09 10° WNW 19:34:00 31° N 19:36:50 10° ENE
STARLINK-1226 4.4 19:31:35 10° WNW 19:34:26 31° N 19:37:16 10° ENE
STARLINK-1254 4.4 19:32:02 10° WNW 19:34:53 31° N 19:37:44 10° ENE
CZ-2C R/B 3.5 19:30:58 10° NE 19:35:15 26° E 19:39:31 10° SSE
STARLINK-1215 4.4 19:32:31 10° WNW 19:35:21 31° N 19:38:11 10° ENE
Cosmos 2228 4.0 19:31:50 10° SE 19:35:22 26° E 19:38:58 10° NNE
Cosmos 2084 Rocket 4.0 19:31:01 10° NW 19:35:26 59° SW 19:39:50 10° SSE
STARLINK-1098 4.3 19:31:30 10° WNW 19:35:30 48° SW 19:39:19 11° SE
Cosmos 1656 Rocket 4.2 19:30:17 10° NNW 19:35:41 42° NE 19:40:14 14° ESE
STARLINK-1231 4.4 19:32:59 10° WNW 19:35:49 31° N 19:38:39 10° ENE
CZ-4 R/B 4.3 19:34:12 10° SW 19:36:38 16° W 19:39:04 10° NW
STARLINK-1232 4.4 19:33:53 10° WNW 19:36:43 30° N 19:39:33 10° ENE
Meteor 1-21 Rocket 4.1 19:31:32 10° N 19:37:06 73° ENE 19:42:37 10° SSE
STARLINK-1217 4.4 19:34:20 10° WNW 19:37:10 30° N 19:40:00 10° ENE
Cosmos 1992 Rocket 4.0 19:32:14 10° NNW 19:37:28 78° ENE 19:42:40 10° SSE
STARLINK-1208 4.4 19:34:44 10° WNW 19:37:36 31° N 19:40:28 10° ENE
STARLINK-1229 4.4 19:35:13 10° WNW 19:38:03 30° N 19:40:53 10° ENE
STARLINK-1271 4.4 19:35:41 10° WNW 19:38:31 30° N 19:41:22 10° ENE
STARLINK-1270 4.4 19:36:09 10° WNW 19:38:59 30° N 19:41:48 10° ENE
STARLINK-1154 4.4 19:36:35 10° WNW 19:39:25 30° N 19:42:14 10° ENE
STARLINK-1197 4.4 19:37:29 10° WNW 19:40:19 30° N 19:43:09 10° ENE
STARLINK-1123 4.5 19:36:30 10° WNW 19:40:28 44° SW 19:44:06 12° SSE
STARLINK-1189 4.4 19:37:58 10° WNW 19:40:48 30° N 19:43:37 10° ENE
STARLINK-1198 4.4 19:38:24 10° WNW 19:41:14 30° N 19:44:03 10° ENE
STARLINK-1188 4.4 19:38:51 10° WNW 19:41:41 30° N 19:44:31 10° ENE
Meteor 2-15 Rocket 4.4 19:35:56 10° S 19:42:00 80° E 19:48:06 10° NNE
ARGOS 3.2 19:36:42 10° SSE 19:42:06 88° ENE 19:47:31 10° NNW
STARLINK-1235 4.4 19:39:34 10° WNW 19:42:25 30° N 19:45:11 11° ENE
STARLINK-1187 4.5 19:39:51 10° WNW 19:42:43 30° N 19:45:33 10° ENE
STARLINK-1199 4.5 19:40:48 10° WNW 19:43:39 30° N 19:46:28 10° ENE
SL-4 R/B 3.2 19:41:28 10° S 19:43:41 16° SE 19:43:45 16° SE
BREEZE-M DEB (TANK) 3.8 19:35:59 10° WNW 19:43:42 81° N 19:45:58 18° E
COSMOS 2455 4.2 19:38:59 10° NNW 19:44:01 27° NE 19:48:18 13° E
STARLINK-1191 4.5 19:41:16 10° WNW 19:44:07 30° N 19:46:54 10° ENE
MetOp-A 4.3 19:39:06 10° SE 19:44:17 54° ENE 19:49:31 10° N
STARLINK-1201 4.5 19:41:25 10° WNW 19:44:23 32° N 19:47:21 10° ENE
STARLINK-1210 4.5 19:41:43 10° WNW 19:44:34 30° N 19:47:20 10° ENE
STARLINK-1221 4.5 19:42:10 10° WNW 19:45:01 30° N 19:47:46 11° ENE
STARLINK-1219 4.5 19:42:37 10° WNW 19:45:28 30° N 19:48:12 11° ENE
STARLINK-1222 4.5 19:43:04 10° WNW 19:45:55 30° N 19:48:38 11° ENE
STARLINK-1211 4.5 19:43:32 10° WNW 19:46:22 30° N 19:49:04 11° ENE
Cosmos 1603 3.7 19:41:07 10° S 19:46:36 57° ESE 19:52:06 10° NE
STARLINK-1214 4.5 19:44:00 10° WNW 19:46:50 30° N 19:49:31 11° ENE
USA 186 2.2 19:43:50 10° S 19:47:12 65° W 19:50:28 10° NNW
STARLINK-1234 4.4 19:44:32 10° WNW 19:47:15 29° N 19:49:39 12° ENE
STARLINK-1245 4.5 19:44:28 10° WNW 19:47:17 30° N 19:49:55 11° ENE
STARLINK-1228 4.4 19:44:42 10° WNW 19:47:17 28° N 19:49:30 12° ENE
Cosmos 1726 2.3 19:44:00 10° S 19:47:37 49° E 19:51:15 10° NNE
STARLINK-1238 4.5 19:44:53 10° WNW 19:47:44 30° N 19:50:23 11° ENE
Cosmos 1340 Rocket 4.3 19:47:47 17° E 19:48:11 17° E 19:50:54 10° NE
STARLINK-1205 4.5 19:45:50 10° WNW 19:48:40 30° N 19:51:14 12° ENE
STARLINK-1204 4.5 19:46:17 10° WNW 19:49:06 30° N 19:51:39 12° ENE
H-2A R/B 2.4 19:45:44 10° S 19:50:58 67° WSW 19:56:06 10° NNW
Cosmos 1328 4.3 19:49:17 10° N 19:53:05 40° ENE 19:55:27 20° SE
Meteor 1-16 Rocket 4.2 19:48:30 10° S 19:53:42 54° E 19:59:04 10° NNE
Resurs 1-3 3.7 19:51:23 14° SSE 19:55:03 54° ENE 19:59:21 10° N
Cosmos 2184 Rocket 4.0 19:51:09 10° N 19:57:29 74° E 20:03:43 10° SSE
STARLINK-1209 4.3 19:54:58 10° WNW 19:57:36 29° N 19:59:26 16° ENE
Meteor 2-10 4.1 19:57:51 10° S 20:03:15 76° E 20:08:52 10° NNE
Cosmos 1703 3.4 20:00:41 10° N 20:04:36 55° ENE 20:06:52 23° SSE
Cosmos 1461 4.3 20:01:48 10° NNW 20:05:46 30° NE 20:07:55 21° E
Cosmos 1953 2.6 20:03:31 10° SSW 20:07:28 68° WNW 20:11:27 10° N
Cosmos 2251 Rocket 3.7 20:04:23 10° SSW 20:09:45 77° WNW 20:15:10 10° NNE
Cosmos 967 Rocket 4.5 20:03:26 10° SSW 20:09:52 77° ESE 20:16:23 10° NE
DMSP B5D2-2 4.1 20:04:45 10° NNE 20:09:55 58° E 20:15:03 10° S
Resurs 01 Rocket 1.6 20:12:29 24° SE 20:14:59 61° ENE 20:19:21 10° N
Cosmos 1437 3.2 20:15:01 10° NNW 20:18:00 55° W 20:19:44 22° S
Cosmos 2154 Rocket 4.0 20:12:59 10° N 20:19:22 71° E 20:24:20 17° SSE
Cosmos 2058 Rocket 3.5 20:18:19 29° SE 20:20:04 42° E 20:24:20 10° NNE
NOSS 3-4 (A) 3.9 20:13:33 10° NW 20:20:25 68° NE 20:24:57 26° ESE
NOSS 3-4 (C) 3.9 20:13:39 10° NW 20:20:31 67° NE 20:25:02 26° ESE
Cosmos 2369 Rocket 3.0 20:16:26 10° NW 20:21:54 49° WSW 20:27:18 10° S
SL-8 R/B 4.3 20:21:24 10° W 20:25:58 45° SSW 20:27:50 30° SSE
CZ-2C R/B 3.9 20:21:20 10° N 20:26:05 75° WNW 20:30:43 10° SSW
Nadezhda 1 Rocket 4.0 20:20:49 10° S 20:27:11 75° E 20:33:33 10° NNE
Cosmos 1943 Rocket 3.6 20:22:34 10° NW 20:27:31 34° WSW 20:32:27 10° SSW
Cosmos 1908 3.1 20:27:25 21° S 20:29:54 79° E 20:33:48 10° NNE
NOSS 3-3 (A) 4.1 20:24:03 10° SW 20:29:58 79° NW 20:36:43 10° NE
NOSS 3-3 (C) 4.1 20:24:09 10° SW 20:30:04 79° NW 20:36:49 10° NE
Meteor 1-11 4.2 20:25:01 10° N 20:30:51 79° ENE 20:34:22 24° SSE
STARLINK-67 3.7 20:30:09 10° NW 20:32:21 34° N 20:32:21 34° N
Abrixas rocket 1.9 20:29:56 10° W 20:32:53 79° N 20:32:54 79° N
Cosmos 1726 Rocket 3.5 20:34:23 11° S 20:38:39 84° W 20:43:08 10° N
SPOT 5 4.0 20:39:20 23° ENE 20:39:20 23° ENE 20:42:41 10° NNE
ISS -1.6 20:37:27 10° W 20:39:45 17° SW 20:40:16 17° SSW
Cosmos 1190 Rocket 4.1 20:40:52 27° S 20:43:34 54° ESE 20:48:44 10° NNE
Cosmos 1943 3.5 20:41:16 10° SW 20:46:53 67° WNW 20:52:36 10° NNE
Spot 2 Rocket 3.5 20:46:22 43° SE 20:47:58 69° ENE 20:53:04 10° N
Aureole 1 Rocket 4.1 20:42:36 10° SSW 20:50:26 78° ESE 20:56:39 10° NNE
USA 234 3.1 20:45:21 10° ENE 20:51:54 71° SE 20:58:26 10° SW
Cosmos 1140 Rocket 3.5 20:51:23 47° SSE 20:52:24 55° ESE 20:57:28 10° NNE
ATLAS 2AS CENTAUR R/B 2.8 20:45:21 10° NW 20:53:01 83° SW 20:56:14 36° SSE
Iridium 4 Rocket 4.1 20:53:41 10° NNE 20:56:43 31° NE 20:56:43 31° NE
MetOp-B 4.1 20:57:15 40° SSE 20:59:16 86° WSW 21:04:41 10° NNW
BREEZE M DEB (TANK) 4.4 21:02:08 34° E 21:02:08 34° E 21:09:44 10° ENE
MOS 1 Rocket 4.1 20:56:28 10° N 21:01:41 59° WNW 21:07:00 10° SSW
Cosmos 1697 Rocket 4.4 21:01:28 10° N 21:05:28 19° NE 21:06:58 17° ENE
Terra 2.8 21:07:36 32° ENE 21:07:36 32° ENE 21:11:29 10° N
Cosmos 921 Rocket 2.8 21:05:32 10° NNW 21:09:38 84° NW 21:09:38 84° NW
Cosmos 1818 4.0 21:05:56 10° SW 21:11:20 63° NW 21:16:46 10° NNE
Cosmos 676 Rocket 4.2 21:12:05 52° ENE 21:12:05 52° ENE 21:16:35 10° NNE
STARLINK-1202 4.5 21:07:47 10° WNW 21:11:46 43° N 21:12:12 41° NNE
CZ-4C R/B 4.3 21:07:15 10° NW 21:12:42 26° NNE 21:17:33 14° ENE
STARLINK-1203 4.4 21:09:00 10° WNW 21:12:57 44° N 21:13:15 43° NNE
Cosmos 614 Rocket 4.3 21:08:45 10° SSW 21:13:56 64° WNW 21:19:09 10° NNE
Cosmos 407 Rocket 3.6 21:10:10 10° SSW 21:15:19 73° WNW 21:20:28 10° NNE
CZ-2C R/B 3.5 21:10:49 10° N 21:15:47 48° WNW 21:20:44 10° SW
IGS 5A 3.5 21:16:12 74° N 21:16:12 74° N 21:20:01 10° NNW
BREEZE-M DEB (TANK) 3.8 21:13:07 10° W 21:14:47 24° W 21:14:47 24° W
SAR-Lupe-2 4.3 21:13:10 10° N 21:16:29 51° WNW 21:16:29 51° WNW
SPOT 1/Viking Rocket 3.4 21:17:02 69° SE 21:17:38 81° ENE 21:22:53 10° NNW
STARLINK-1246 4.4 21:17:45 10° WNW 21:21:45 44° N 21:21:45 44° N
SL-4 R/B 4.4 21:19:22 10° WSW 21:19:26 10° WSW 21:19:26 10° WSW
Cosmos 1340 Rocket 3.9 21:23:18 36° WSW 21:24:18 44° WNW 21:28:12 10° N
STARLINK-1224 4.5 21:22:47 10° WNW 21:26:34 45° N 21:26:34 45° N
ERS-1 Rocket 2.8 21:27:58 79° ENE 21:27:58 79° ENE 21:32:59 10° NNW
COSMOS 2455 2.7 21:24:37 10° NW 21:30:41 83° WSW 21:31:27 69° SSE
Cosmos 2341 Rocket 4.3 21:24:47 10° NNW 21:31:05 63° W 21:33:32 38° SSW
Cosmos 1980 Rocket 4.1 21:29:00 10° N 21:32:43 18° NE 21:33:52 17° NE
Cosmos 1892 4.3 21:29:42 10° N 21:31:50 30° N 21:31:50 30° N
Cosmos 1954 Rocket 4.0 21:37:55 73° NNE 21:37:55 73° NNE 21:42:39 10° NNE
ATLAS CENTAUR R/B 3.7 21:40:16 10° N 21:42:19 15° NNE 21:42:19 15° NNE
Cosmos 1461 4.0 21:40:41 10° NW 21:44:19 44° W 21:44:19 44° W
Cosmos 1076 Rocket 4.5 21:44:54 10° NNW 21:47:57 45° NNW 21:47:57 45° NNW
Cosmos 1656 4.1 21:45:09 10° NNW 21:50:24 51° NE 21:50:24 51° NE
Cosmos 2218 Rocket 4.1 21:45:37 10° NNW 21:51:46 70° W 21:52:40 61° SW
Resurs 01 Rocket 4.1 21:50:02 13° WSW 21:51:53 16° W 21:54:34 10° NW
ATLAS 5 CENTAUR R/B 3.7 22:02:16 20° NNE 22:02:16 20° NNE 22:03:52 10° NE
USA 32 4.4 21:56:24 10° N 22:00:37 58° N 22:00:37 58° N
Meteor 2-1 Rocket 4.4 22:08:05 77° NW 22:08:05 77° NW 22:13:49 10° N
Cosmos 1763 Rocket 4.0 22:04:45 10° NNW 22:08:49 55° NNW 22:08:49 55° NNW
SPOT 5 4.2 22:18:33 32° NW 22:18:33 32° NW 22:21:19 10° NNW
Cosmos 2369 4.4 22:27:08 10° NNW 22:31:29 48° N 22:31:29 48° N
USA 234 3.9 22:28:29 10° NE 22:34:49 54° NNW 22:41:08 10° W
Nadezhda 3 Rocket 4.2 22:37:09 66° N 22:37:09 66° N 22:42:30 10° N
ATLAS 2AS CENTAUR R/B 4.5 22:37:51 10° WNW 22:42:49 20° WSW 22:43:41 19° WSW
Terra 3.6 22:46:29 27° WNW 22:46:29 27° WNW 22:49:18 10° NNW
Cosmos 1697 Rocket 3.5 22:44:39 10° NNW 22:48:42 48° NNW 22:48:42 48° NNW
Mayak 1.3 22:48:41 10° N 22:49:57 19° N 22:49:57 19° N
SL-16 R/B 4.0 22:56:11 10° N 23:00:33 24° NE 23:00:33 24° NE
CZ-4C R/B 3.1 22:55:42 10° NW 23:02:37 61° NE 23:02:42 61° NE
Cosmos 2360 Rocket 4.5 23:06:08 10° N 23:09:22 15° NE 23:10:45 14° NE
Cosmos 2322 Rocket 4.0 23:07:32 10° N 23:11:48 24° NE 23:11:48 24° NE
Cosmos 1980 Rocket 3.3 23:12:06 10° NNW 23:15:38 40° NNW 23:15:38 40° NNW
ATLAS CENTAUR R/B 4.5 23:18:21 10° NW 23:18:29 11° NW 23:18:29 11° NW
Cosmos 2344 4.3 23:27:21 10° NW 23:36:52 88° NE 23:38:51 68° SE
Cosmos 2082 Rocket 3.7 23:44:34 31° NNE 23:44:34 31° NNE 23:47:26 10° NNE
ATLAS 5 CENTAUR R/B 4.2 23:43:41 18° NW 23:44:48 19° NNW 23:48:23 10° NNE
